Regional Weather Roundup
Issued by NWS Albany, NY

Home | Current Version | Previous Version | Text Only | Print | Product List | Glossary On
Versions: 1 2 3 4 5 6 7 8 9 10 11 12 13 14 15 16 17 18 19 20 21 22 23 24 25 26 27
000
ASUS41 KALY 261410
RWRALY

NEW YORK STATE HOURLY WEATHER ROUNDUP
NATIONAL WEATHER SERVICE ALBANY NY
1000 AM EDT MON JUN 26 2017

NOTE: "FAIR" INDICATES FEW OR NO CLOUDS BELOW 12,000 FEET WITH NO
SIGNIFICANT WEATHER AND/OR NO OBSTRUCTIONS TO VISIBILITY.

NYZ032-033-038>043-046>054-057>066-NYZ062>081-082-084-261500-
EAST


CITY           SKY/WX    TMP DP  RH WIND       PRES   REMARKS
ALBANY         MOSUNNY   68  55  63 W8        30.01S
GLENS FALLS    MOSUNNY   67  50  54 CALM      29.99S
POUGHKEEPSIE   NOT AVBL
NEWBURGH       SUNNY     68  55  64 W7        30.05S
WHITE PLAINS   MOSUNNY   72  52  49 W9        30.03S
ISLIP          MOSUNNY   74  52  46 NW7       30.03S
NEW YORK CITY  MOSUNNY   73  51  46 NW9       30.03S
CENTRAL PARK   SUNNY     71  49  45 W8        30.07S
$$

NYZ005>009-017-018-044>046-055-056-261500-
CENTRAL


CITY           SKY/WX    TMP DP  RH WIND       PRES   REMARKS
FULTON         PTSUNNY   67  56  67 SW5       30.00S
SYRACUSE       MOSUNNY   66  55  67 W18       29.99S
ROME           MOSUNNY   63  56  78 NW5       30.01F
ELMIRA         MOSUNNY   66  54  63 SW8       30.03S
BINGHAMTON     MOSUNNY   61  52  72 W7        30.04S
$$

NYZ026>034-041>043-087-261500-
NORTH


CITY           SKY/WX    TMP DP  RH WIND       PRES   REMARKS
WATERTOWN      CLOUDY    63  56  78 W7        29.99S
FORT DRUM      NOT AVBL
OGDENSBURG     FAIR      63  54  71 CALM      29.99S
MASSENA        PTSUNNY   62  54  74 W6        29.99S
SARANAC LAKE   PTSUNNY   58  48  69 SW5       29.98F
PLATTSBURGH    NOT AVBL
$$

NYZ001>004-010>016-019>021-085-261500-
WEST


CITY           SKY/WX    TMP DP  RH WIND       PRES   REMARKS
NIAGARA FALLS  PTSUNNY   67  53  61 W10       30.00S
BUFFALO        PTSUNNY   65  50  58 SW14G21   30.00F
DUNKIRK        LGT RAIN  58  54  86 SE6       30.03F
JAMESTOWN      MOSUNNY   63  48  59 W10       30.05S
WELLSVILLE     SUNNY     63  51  65 W10       30.07F
ROCHESTER      PTSUNNY   67  54  63 W15       30.00S
PENN YAN       MOSUNNY   66  50  56 W13       30.02S
$$

             KEY
       WCI = WIND CHILL INDEX
       VSB = VISIBILITY
       HX  = HEAT INDEX
$$




USA.gov is the U.S. government's official web portal to all federal, state and local government web resources and services.